Simultaneous Nadir Overpasses (SNOs) Predictions

Prediction of SNOs between AQUA and METOP-A Satellite Orbit:

Table of predicted SNOs for the next 14.0 days since TLE Epoch: 9/5/2014
Index Date (AQUA) Time (AQUA) Lat,Lon (AQUA) SZA (AQUA ) Date (METOP-A) Time (METOP-A) Lat,Lon (METOP-A) SZA (METOP-A ) Distance(km) Time Diff (sec)
1 09/06/2014 07:16:40 73.78, 65.19 67.33 09/06/2014 07:15:47 73.79, 65.26 67.34 2.42 53
2 09/06/2014 08:06:06 -73.81,-127.24 112.63 09/06/2014 08:06:28 -73.82,-127.34 112.62 3.20 22
3 09/06/2014 08:55:48 74.55, 38.68 68.18 09/06/2014 08:56:53 74.56, 41.85 68.09 93.93 65
4 09/09/2014 02:50:55 73.75, 131.68 68.35 09/09/2014 02:50:11 73.75, 131.58 68.36 3.14 44
5 09/09/2014 03:40:22 -73.83, -60.85 111.56 09/09/2014 03:40:51 -73.83, -60.90 111.56 1.52 29
6 09/11/2014 22:25:11 73.80,-161.99 69.46 09/11/2014 22:24:33 73.81,-161.87 69.47 3.70 38
7 09/11/2014 23:14:36 -73.83, 5.60 110.51 09/11/2014 23:15:13 -73.84, 5.53 110.49 2.78 37
8 09/14/2014 17:59:24 73.77, -95.48 70.50 09/14/2014 17:58:56 73.76, -95.57 70.50 2.93 28
9 09/14/2014 18:48:51 -73.84, 72.00 109.42 09/14/2014 18:49:36 -73.85, 71.95 109.42 1.66 45
10 09/17/2014 12:43:59 -73.16, 164.62 109.08 09/17/2014 12:42:52 -73.12, 162.04 109.05 83.27 67
11 09/17/2014 13:33:39 73.82, -29.14 71.63 09/17/2014 13:33:18 73.81, -29.04 71.62 3.04 21
12 09/17/2014 14:23:05 -73.83, 138.47 108.35 09/17/2014 14:23:59 -73.85, 138.36 108.34 3.59 54




NCC Satellite Simultaneous Nadir Overpasses (SNOs) Prediction Service
